User: anonymous   Login
Location: Glencliff
(36.1226°N, 86.7183°W)
Time: 15:39:26
(UTC+00:00)
Language:

Cosmos 1238 Rocket - Orbit

View from above orbital plane
View from above orbital plane
View from above satellite
View from above satellite

Ground track
Ground track

The orbit data is extracted from the following two-line orbital elements,

1 12139U 81003B   19290.14275127  .00001030  00000-0  48549-4 0  9996
2 12139  82.9480 167.5243 0463400 294.4972  60.8576 14.56523151970888
Epoch (UTC): 17 October 2019 03:25:33
Eccentricity: 0.0463400
inclination: 82.9480°
perigee height: 376 km
apogee height: 1032 km
right ascension of ascending node: 167.5243°
argument of perigee: 294.4972°
revolutions per day: 14.56523151
mean anomaly at epoch: 60.8576°
orbit number at epoch: 97088

The dashed part of the orbit path shows where the satellite is in the earth's shadow,  

DLR